, LA

(GMT )
Boothville

Weather History for KBVE - March, 2013

Change the Weather History Date:

Wednesday, March 6, 2013

  Actual Average Record
Temperature  
Mean Temperature 52 °F -  
Max Temperature 57 °F - - ()
Min Temperature 48 °F - - ()
Degree Days  
Heating Degree Days 12    
Growing Degree Days 2 (Base 50)    
Moisture  
Dew Point 35 °F    
Average Humidity 53    
Maximum Humidity 74    
Minimum Humidity 37    
Precipitation  
Precipitation 0.00 in - - ()
Sea Level Pressure  
Sea Level Pressure 30.26 in    
Wind  
Wind Speed 11 mph (NNW)    
Max Wind Speed 17 mph    
Max Gust Speed 26 mph    
Visibility 10 miles    
Events      
T = Trace of Precipitation, MM = Missing Value Source: NWS Daily Summary

Daily Weather History Graph

Daily Weather History Graph

Search for Another Location

Airport or City:

Trip Planner

Search our weather history database for the weather conditions in past years. The results will help you decide how hot, cold, wet, or windy it might be!

Date:

Astronomy

Mar. 06, 2013 Rise Set
Actual Time 6:17 AM CST 6:00 PM CST
Civil Twilight 5:53 AM CST 6:24 PM CST
Nautical Twilight 5:26 AM CST 6:51 PM CST
Astronomical Twilight 4:58 AM CST 7:19 PM CST
Moon 2:07 AM CST (3/6) 1:00 PM CST (3/6)
Length of Visible Light 12h 30m
Length of Day
11h 43m
Waning Crescent, 29% of the Moon is Illuminated
Mar 6
Waning Crescent
Mar 11
New
Mar 19
First Quarter
Mar 27
Full
Apr 2
Last Quarter

Hourly Weather History & Observations

Time (CST) Temp. Dew Point Humidity Pressure Visibility Wind Dir Wind Speed Gust Speed Precip Events Conditions
12:51 AM 55.0 °F 43.0 °F 64% 30.18 in 10.0 mi North 10.4 mph 18.4 mph N/A   Clear
1:51 AM 55.0 °F 42.1 °F 62% 30.19 in 10.0 mi North 12.7 mph 18.4 mph N/A   Clear
2:51 AM 54.0 °F 39.0 °F 57% 30.19 in 10.0 mi NNW 17.3 mph 26.5 mph N/A   Clear
3:51 AM 52.0 °F 39.9 °F 63% 30.21 in 10.0 mi North 16.1 mph 25.3 mph N/A   Clear
4:51 AM 51.1 °F 34.0 °F 52% 30.24 in 10.0 mi North 12.7 mph 25.3 mph N/A   Clear
5:51 AM 50.0 °F 35.1 °F 57% 30.27 in 10.0 mi North 11.5 mph 23.0 mph N/A   Clear
6:51 AM 48.9 °F 30.0 °F 48% 30.29 in 10.0 mi NNW 16.1 mph 23.0 mph N/A   Clear
7:51 AM 48.9 °F 30.9 °F 50% 30.32 in 10.0 mi North 9.2 mph 20.7 mph N/A   Clear
8:51 AM 50.0 °F 30.9 °F 48% 30.32 in 10.0 mi North 15.0 mph 23.0 mph N/A   Clear
9:51 AM 51.1 °F 32.0 °F 48% 30.33 in 10.0 mi North 9.2 mph 18.4 mph N/A   Clear
10:51 AM 51.1 °F 30.9 °F 46% 30.32 in 10.0 mi North 10.4 mph 17.3 mph N/A   Clear
11:51 AM 52.0 °F 28.9 °F 41% 30.30 in 10.0 mi NNW 13.8 mph - N/A   Clear
12:51 PM 54.0 °F 30.9 °F 41% 30.27 in 10.0 mi NNW 11.5 mph 16.1 mph N/A   Clear
1:51 PM 55.0 °F 32.0 °F 42% 30.24 in 10.0 mi NNW 12.7 mph - N/A   Clear
2:51 PM 55.9 °F 30.9 °F 39% 30.23 in 10.0 mi NW 12.7 mph - N/A   Clear
3:51 PM 57.0 °F 30.9 °F 37% 30.22 in 10.0 mi NNW 9.2 mph - N/A   Clear
4:51 PM 57.0 °F 32.0 °F 39% 30.22 in 10.0 mi NW 10.4 mph - N/A   Clear
5:51 PM 55.0 °F 33.1 °F 43% 30.23 in 10.0 mi NW 8.1 mph - N/A   Clear
6:51 PM 53.1 °F 37.9 °F 57% 30.24 in 10.0 mi WNW 4.6 mph - N/A   Clear
7:51 PM 48.9 °F 41.0 °F 74% 30.25 in 10.0 mi WNW 4.6 mph - N/A   Clear
8:51 PM 53.1 °F 34.0 °F 48% 30.26 in 10.0 mi NW 4.6 mph - N/A   Clear
9:51 PM 50.0 °F 39.9 °F 68% 30.28 in 10.0 mi NNW 3.5 mph - N/A   Clear
10:51 PM 51.1 °F 43.0 °F 74% 30.27 in 10.0 mi North 3.5 mph - N/A   Clear
11:51 PM 53.1 °F 41.0 °F 64% 30.26 in 10.0 mi NNE 8.1 mph - N/A   Clear